Location: La Fredeussais
(48.1780°N, 1.3980°W)
Time: 18:31:55
(UTC+00:00)

Cosmos 2084 - Pass Details

Date: 09 May 2021
Orbit: 542 x 639 km, 62.8° (Epoch: 16 June)

Event Time Altitude Azimuth Distance (km) Brightness Sun altitude
Rises 21:22:35 0° 212° (SSW) 2,706 6.7 -15.2°
Reaches altitude 10° 21:24:46 10° 209° (SSW) 1,826 5.8 -15.5°
Maximum altitude 21:28:50 66° 128° (SE) 618 3.3 -15.9°
Drops below altitude 10° 21:33:03 10° 46° (NE) 1,888 6.1 -16.3°
Sets 21:35:20 0° 44° (NE) 2,808 7.1 -16.5°
